CSAPA EDFM-EDFE

Flight info

Callsign CSAPA
Flight time 0h 23m
Altitude 1400
Route EDFM/27 RROUTE ROMEO DCT HEMSB A5 DROUTE EDFE
Aircraft C152/L-V/N

Departure

Time 2026-04-28 15:29
Airport Mannheim-City Airport (EDFM)

Arrival

Time 2026-04-28 15:52
Airport Frankfurt-Egelsbach Airport (EDFE)
Time Latitude Longitude Altitude Speed Heading
2026-04-28 15:21 49.47505 8.51921 312 ft 0 kts
2026-04-28 15:23 49.47506 8.51921 312 ft 0 kts
2026-04-28 15:25 49.47512 8.51936 312 ft 1 kts 92°
2026-04-28 15:26 49.47512 8.51942 312 ft 3 kts 93°
2026-04-28 15:26 49.47508 8.52047 312 ft 9 kts 94°
2026-04-28 15:26 49.47510 8.52114 312 ft 5 kts 39°
2026-04-28 15:26 49.47531 8.52145 312 ft 6 kts 98°
2026-04-28 15:27 49.47493 8.52166 312 ft 9 kts 181°
2026-04-28 15:27 49.47420 8.52161 312 ft 12 kts 184°
2026-04-28 15:27 49.47332 8.52153 312 ft 13 kts 183°
2026-04-28 15:27 49.47250 8.52145 312 ft 10 kts 207°
2026-04-28 15:28 49.47249 8.52049 312 ft 25 kts 271°
2026-04-28 15:28 49.47268 8.51495 330 ft 72 kts 273°
2026-04-28 15:28 49.47300 8.50732 556 ft 70 kts 274°
2026-04-28 15:28 49.47327 8.49969 760 ft 74 kts 272°
2026-04-28 15:29 49.47347 8.49099 909 ft 85 kts 272°
2026-04-28 15:29 49.47377 8.48184 1127 ft 85 kts 278°
2026-04-28 15:29 49.47629 8.47333 1293 ft 90 kts 308°
2026-04-28 15:29 49.48101 8.46697 1432 ft 96 kts 322°
2026-04-28 15:30 49.48644 8.46013 1417 ft 104 kts 320°
2026-04-28 15:30 49.49218 8.45308 1406 ft 107 kts 326°
2026-04-28 15:30 49.49870 8.44744 1383 ft 108 kts 336°
2026-04-28 15:30 49.50584 8.44383 1381 ft 108 kts 345°
2026-04-28 15:31 49.51308 8.44080 1377 ft 108 kts 345°
2026-04-28 15:31 49.52045 8.43816 1350 ft 109 kts 348°
2026-04-28 15:31 49.52789 8.43593 1341 ft 108 kts 350°
2026-04-28 15:31 49.53514 8.43355 1360 ft 107 kts 346°
2026-04-28 15:32 49.54243 8.43062 1347 ft 108 kts 345°
2026-04-28 15:32 49.54968 8.42782 1343 ft 108 kts 346°
2026-04-28 15:32 49.55700 8.42528 1351 ft 107 kts 348°
2026-04-28 15:32 49.56438 8.42329 1338 ft 108 kts 353°
2026-04-28 15:33 49.57175 8.42444 1358 ft 108 kts 18°
2026-04-28 15:33 49.57828 8.43020 1340 ft 110 kts 40°
2026-04-28 15:33 49.58283 8.43928 1372 ft 108 kts 63°
2026-04-28 15:33 49.58503 8.45036 1371 ft 109 kts 80°
2026-04-28 15:34 49.58593 8.46175 1382 ft 109 kts 85°
2026-04-28 15:34 49.58633 8.47359 1382 ft 109 kts 88°
2026-04-28 15:34 49.58622 8.48518 1398 ft 108 kts 93°
2026-04-28 15:34 49.58563 8.49666 1399 ft 109 kts 95°
2026-04-28 15:35 49.58491 8.50824 1415 ft 108 kts 95°
2026-04-28 15:35 49.58396 8.53152 1414 ft 109 kts 94°
2026-04-28 15:35 49.58332 8.54320 1414 ft 109 kts 95°
2026-04-28 15:36 49.58261 8.55483 1419 ft 109 kts 95°
2026-04-28 15:36 49.58202 8.56649 1414 ft 110 kts 92°
2026-04-28 15:36 49.58183 8.57828 1406 ft 110 kts 91°
2026-04-28 15:36 49.58177 8.59010 1396 ft 110 kts 90°
2026-04-28 15:37 49.58181 8.60192 1391 ft 110 kts 89°
2026-04-28 15:37 49.58276 8.61356 1382 ft 110 kts 75°
2026-04-28 15:37 49.58602 8.62424 1360 ft 111 kts 53°
2026-04-28 15:37 49.59206 8.63157 1323 ft 112 kts 22°
2026-04-28 15:38 49.59960 8.63318 1351 ft 109 kts 356°
2026-04-28 15:38 49.60707 8.63190 1357 ft 110 kts 349°
2026-04-28 15:38 49.61426 8.62825 1365 ft 104 kts 335°
2026-04-28 15:38 49.62061 8.62369 1384 ft 101 kts 335°
2026-04-28 15:39 49.62770 8.61941 1402 ft 117 kts 340°
2026-04-28 15:39 49.63528 8.61604 1386 ft 104 kts 349°
2026-04-28 15:39 49.64201 8.61420 1273 ft 98 kts 352°
2026-04-28 15:39 49.64881 8.61287 1325 ft 97 kts 351°
2026-04-28 15:40 49.65542 8.61040 1351 ft 100 kts 343°
2026-04-28 15:40 49.66212 8.60726 1363 ft 102 kts 343°
2026-04-28 15:40 49.66894 8.60403 1371 ft 102 kts 342°
2026-04-28 15:40 49.67585 8.60140 1382 ft 103 kts 351°
2026-04-28 15:41 49.68302 8.60076 1384 ft 103 kts 360°
2026-04-28 15:41 49.69023 8.60077 1381 ft 104 kts
2026-04-28 15:41 49.69747 8.60059 1386 ft 104 kts 357°
2026-04-28 15:41 49.70466 8.59970 1388 ft 104 kts 353°
2026-04-28 15:42 49.71184 8.59832 1387 ft 104 kts 352°
2026-04-28 15:42 49.71901 8.59680 1390 ft 104 kts 352°
2026-04-28 15:42 49.72622 8.59560 1385 ft 104 kts 355°
2026-04-28 15:42 49.73348 8.59539 1380 ft 105 kts
2026-04-28 15:43 49.74072 8.59567 1387 ft 104 kts
2026-04-28 15:43 49.74797 8.59677 1374 ft 105 kts 10°
2026-04-28 15:43 49.75491 8.60015 1372 ft 105 kts 24°
2026-04-28 15:43 49.76140 8.60512 1379 ft 104 kts 26°
2026-04-28 15:44 49.76785 8.61010 1385 ft 104 kts 26°
2026-04-28 15:44 49.77444 8.61472 1380 ft 104 kts 22°
2026-04-28 15:44 49.78123 8.61824 1386 ft 104 kts 16°
2026-04-28 15:44 49.78816 8.62153 1379 ft 105 kts 18°
2026-04-28 15:45 49.79509 8.62493 1382 ft 104 kts 17°
2026-04-28 15:45 49.80209 8.62781 1383 ft 104 kts 13°
2026-04-28 15:45 49.80918 8.63009 1381 ft 104 kts 12°
2026-04-28 15:45 49.81628 8.63240 1387 ft 104 kts 11°
2026-04-28 15:46 49.82328 8.63465 1401 ft 103 kts 12°
2026-04-28 15:46 49.83049 8.63637 1381 ft 105 kts
2026-04-28 15:46 49.83754 8.63497 1409 ft 103 kts 339°
2026-04-28 15:46 49.84308 8.62804 1390 ft 105 kts 310°
2026-04-28 15:47 49.84766 8.61921 1388 ft 104 kts 307°
2026-04-28 15:47 49.85201 8.61028 1392 ft 104 kts 307°
2026-04-28 15:47 49.85739 8.60285 1385 ft 104 kts 334°
2026-04-28 15:47 49.86465 8.60140 1327 ft 108 kts
2026-04-28 15:48 49.87195 8.60263 1366 ft 103 kts
2026-04-28 15:48 49.87906 8.60403 1363 ft 104 kts
2026-04-28 15:48 49.88632 8.60523 1354 ft 104 kts
2026-04-28 15:48 49.89348 8.60687 1355 ft 105 kts
2026-04-28 15:49 49.90073 8.60822 1358 ft 105 kts
2026-04-28 15:49 49.90782 8.61001 1370 ft 105 kts 11°
2026-04-28 15:49 49.91492 8.61202 1385 ft 102 kts 10°
2026-04-28 15:49 49.92190 8.61390 1346 ft 100 kts
2026-04-28 15:50 49.92876 8.61463 1224 ft 100 kts 358°
2026-04-28 15:50 49.93550 8.61380 1185 ft 92 kts 353°
2026-04-28 15:50 49.94176 8.61248 1068 ft 87 kts 351°
2026-04-28 15:50 49.94708 8.61134 981 ft 71 kts 353°
2026-04-28 15:51 49.95219 8.61033 877 ft 75 kts 353°
2026-04-28 15:51 49.95679 8.61251 802 ft 72 kts 45°
2026-04-28 15:51 49.95960 8.61879 662 ft 71 kts 70°
2026-04-28 15:51 49.96013 8.62631 497 ft 69 kts 85°
2026-04-28 15:52 49.96046 8.63316 389 ft 56 kts 86°
2026-04-28 15:52 49.96069 8.63806 388 ft 37 kts 86°
2026-04-28 15:52 49.96086 8.64154 388 ft 31 kts 84°
2026-04-28 15:52 49.96097 8.64431 388 ft 12 kts 87°
2026-04-28 15:53 49.96131 8.64491 388 ft 8 kts 25°
2026-04-28 15:53 49.96183 8.64529 388 ft 9 kts 21°
2026-04-28 15:53 49.96247 8.64527 388 ft 10 kts 354°
2026-04-28 15:53 49.96323 8.64515 388 ft 13 kts 355°
2026-04-28 15:54 49.96392 8.64519 388 ft 4 kts 72°
2026-04-28 15:54 49.96369 8.64559 388 ft 9 kts 159°
2026-04-28 15:54 49.96340 8.64550 388 ft 3 kts 263°
2026-04-28 15:54 49.96339 8.64543 388 ft 0 kts 263°
2026-04-28 15:58 49.96339 8.64542 388 ft 0 kts 263°
2026-04-28 16:05 49.96339 8.64541 388 ft 0 kts 263°